Эльва

Эстония     58°15′04″N   26°28′17″E
темп.,
°C
ветер,
м/с
пор.,
м/с
влажн.,
%
обл.,
%
осадки,
мм/ч
давл.,
гПа
погр.,
м
23 октября, сб
сб2300:00+4юз512895 0.0 991494
03:00+3юз5138446 0.0 992491
06:00+4зюз61186100 0.1 993957
09:00+4з61195100 1.4 995983
12:00+3зсз61196100 1.3 999627
15:00+3зсз61196100 2.2 1003687
18:00+3сз6118799 0.2 1008831
21:00+2сз598886 0.3 1012739
24 октября, вс
вс2400:00+2сз5109098 0.1 1016706
03:00+2сз598048 0.1 1018803
06:00+1сз487999 0.0 1020659
09:00−1сз39905 0.1 1023365
12:00+2сз356964 0.0 1025717
15:00+3зсз3561100 0.0 1026705
18:00+1юз227499 0.0 102626
21:00+1ю3777100 0.0 1026173
25 октября, пн
пн2500:00+3ю41284100 0.0 1025367
03:00+3ююз51387100 0.0 1023453
06:00+5юз61492100 0.0 1022529
09:00+5юз61391100 0.0 1021679
12:00+6юз61287100 0.0 1021912
15:00+8юз6117592 0.0 1020898
18:00+6юз512815 0.0 1019509
21:00+5ююз51478100 0.0 1018482
26 октября, вт
вт2600:00+5юз51478100 0.0 1018528
03:00+4юз51282100 0.0 1016444
06:00+3юз41286100 0.0 1015380
09:00+3юз41190100 0.0 1015356
12:00+6юз51182100 0.0 1014482
15:00+8юз51179100 0.0 1013513
18:00+8юз61486100 0.0 1013616
21:00+8юз61289100 0.1 1012733
27 октября, ср
ср2700:00+8зюз5118897 0.2 1012548
03:00+8зюз5119170 0.3 1012725
06:00+8юз41086100 0.1 1011481
09:00+8юз51190100 0.4 1011612
12:00+9зсз468133 0.9 1012495
15:00+9з467545 0.9 1014832
18:00+7з388773 0.0 1015205
21:00+6з41095100 0.0 1017332